Home   Weather   42°18'N, 89°05'W   Past weeks
Flag for USA

Past Weather in 42°18'N, 89°05'W, USA — Yesterday and Last 2 Weeks

Now
20 °F

Clear.


Feels Like: 10 °F
Forecast: 36 / 9 °F
Wind: 8 mph from Northwest

Location: Greater Rockford Airport

Current Time: Feb 28, 2020 at 10:45:57 pm

Latest Report: Feb 28, 2020 at 9:54 pm


Visibility: 10 mi

Pressure: 30.21 "Hg

Humidity: 52%

Dew Point: 5 °F

Location of 42°18'N, 89°05'WLocation

Past Weather in 42°18'N, 89°05'W — Graph

°F

42°18'N, 89°05'W Temperature Yesterday

Maximum temperature yesterday: 32 °F (at 1:54 pm)
Minimum temperature yesterday: 20 °F (at 4:54 am)
Average temperature yesterday: 25 °F

High & Low Weather Summary for the Past Weeks

 TemperatureHumidityPressure
High53 °F (Feb 23, 3:54 pm)100% (Feb 16, 3:05 am)30.81 "Hg (Feb 16, 3:05 am)
Low-9 °F (Feb 14, 5:54 am)41% (Feb 20, 3:54 pm)29.81 "Hg (Feb 17, 10:14 pm)
Average26 °F68%30.21 "Hg
* Reported Feb 13 8:54 pm — Feb 28 8:54 pm, 42°18'N, 89°05'W. Weather by CustomWeather, © 2020

Note: Actual official high and low records may vary slightly from our data, if they occured in-between our weather recording intervals... More about our weather records

42°18'N, 89°05'W Weather History for the Previous 24 Hours

Scroll right to see more
 ConditionsComfort  
Time TempWeatherWind HumidityBarometerVisibility
8:54 pm
Fri, Feb 28
22 °FClear.9 mph50%30.20 "Hg10 mi
7:54 pm22 °FClear.9 mph55%30.19 "Hg10 mi
6:54 pm23 °FClear.9 mph50%30.17 "Hg10 mi
5:54 pm25 °FPassing clouds.10 mph46%30.15 "Hg10 mi
4:54 pm27 °FPassing clouds.15 mph42%30.14 "Hg10 mi
3:54 pm28 °FScattered clouds.12 mph45%30.11 "Hg10 mi
2:54 pm28 °FScattered clouds.16 mph45%30.10 "Hg10 mi
1:54 pm27 °FPartly sunny.15 mph46%30.10 "Hg10 mi
12:54 pm27 °FScattered clouds.9 mph46%30.10 "Hg10 mi
11:54 am27 °FScattered clouds.10 mph46%30.11 "Hg10 mi
10:54 am25 °FScattered clouds.12 mph58%30.11 "Hg10 mi
9:54 am23 °FLight snow. Broken clouds.8 mph72%30.11 "Hg8 mi
9:09 am21 °FLight snow. Overcast.10 mph74%30.08 "Hg3 mi
8:54 am20 °FLight snow. Mostly cloudy.8 mph78%30.11 "Hg2 mi
8:20 am19 °FLight snow. Mostly cloudy.8 mph77%30.08 "Hg3 mi
7:54 am20 °FLight snow. Mostly cloudy.8 mph74%30.11 "Hg2 mi
7:06 am19 °FLight snow. Overcast.9 mph68%30.06 "Hg2 mi
6:54 am20 °FLight snow. Overcast.9 mph62%30.09 "Hg4 mi
5:54 am20 °FMostly cloudy.7 mph68%30.09 "Hg10 mi
4:54 am19 °FOvercast.5 mph71%30.08 "Hg10 mi
3:54 am19 °FOvercast.6 mph71%30.08 "Hg10 mi
2:54 am19 °FOvercast.8 mph71%30.09 "Hg10 mi
1:54 am19 °FOvercast.9 mph71%30.10 "Hg10 mi
12:54 am19 °FPassing clouds.10 mph74%30.10 "Hg10 mi
11:54 pm
Thu, Feb 27
20 °FClear.9 mph71%30.11 "Hg10 mi
10:54 pm21 °FClear.8 mph68%30.11 "Hg10 mi
Weather by CustomWeather, © 2020

See weather overview

Advertising